Showing default

HULIANWANG DIGUI-03, 62325

Orbit data source: Space-Track

HULIANWANG DIGUI-03, 62325 is a payload satellite owned by Zhongguo Xingwang (CN) in LEO that was launched on Mon, 16 Dec 2024 UTC via a CHANG ZHENG 5B/YZ-2 launch vehicle from the Wenchang Satellite Launch Center (WSC). Payload-class satellites include a variety of spacecraft equipped with specific instruments for various scientific and technological missions. These include communications satellites like Starlink; space stations such as the ISS; scientific satellites like the Hubble; Earth observation satellites from companies like Planet Labs, Umbra, and HawkEye 360; GPS; miniature CubeSats for education and research; and military/defense satellites.

Loading next visibility...
Identifier
62325, 2024-240C
Orbit
LEO
Country
Flag of CNCN / PRC
Related business
Manufacturer
CAST?
Mission
Operational Civil Communications
Bus & Motor
GUOWANG C, Unknown motor
Mass
~800 kg wet, ~800 kg dry
Launch date (UTC)
2024-12-16 (10 months ago)
Launch vehicle
CHANG ZHENG 5B/YZ-2
Launch site
Wenchang Satellite Launch Center (WSC)
Object type
Payload
Rocket body
Debris
Shape & HBR
Box + 2 Pan, 5.0 m
Radar Cross Section
5.935 m², Large (>1 m²)

Expand to show TLE details & history
Last TLE update: 6 hours ago

TLE from 6 hours ago
0 HULIANWANG DIGUI-03
1 62325U 24240C   25290.85923917  .00000065  00000-0  11816-3 0  9993
2 62325  86.4941  64.9305 0001793 103.3589 256.7745 13.24415028 40569
Epoch: 2025-10-17T20:37Z
TLE epoch observation values (Epoch: 2025-10-17T20:37:18.264Z)
Latitude
-0.00001°
Longitude
89.00583°
Altitude
1,171.107 km
Speed
7.268 km/s
True Right ascension
04h 19m 43s
True Declination
0° 00' 00"
Sunlit
Object was in full shadow at epoch
Visualization orbit readout
Latitude
Unknown
Longitude
Unknown
Altitude
Unknown
Speed
Unknown
Apparent Right ascension
Unknown
Apparent Declination
Unknown
Sunlit
N/A
Visualization observer readout
Local Sidereal Time
21:33:39
Azimuth
Unknown
Elevation
Unknown
Doppler factor
Unknown
Orbital elements
Apogee altitude
1,166.376 km
Perigee altitude
1,163.671 km
Semi-major axis
7,543.16 km
Eccentricity
0.00018
Inclination
86.4941°
RAAN
64.9305°
Arg. of periapsis
103.3589°
True anomaly
256.7545°
Mean anomaly
256.7745°
Eccentric anomaly
256.7645°
Mean motion
3.31294 °/min
Orbital period
108.66 mins
BSTAR
0.00011816
Loading maneuver chart data...
Computing Atmospheric mass density...
Loading historical data...
Loading historical data...
Loading historical data...
Loading historical data...
Loading historical data...
Loading historical data...
Loading historical data...

Documentation

Showing up to 5 results
|